Year,Month,Day,Hour,Minute,Value (Times are PST for temperature in C)
2016,04,15,00,00,9.30
2016,04,15,00,01,9.30
2016,04,15,00,02,9.30
2016,04,15,00,03,9.30
2016,04,15,00,04,9.30
2016,04,15,00,05,9.30
2016,04,15,00,06,9.30
2016,04,15,00,07,9.30
2016,04,15,00,08,9.30
2016,04,15,00,09,9.30
2016,04,15,00,10,9.20
2016,04,15,00,11,9.20
2016,04,15,00,12,9.20
2016,04,15,00,13,9.20
2016,04,15,00,14,9.20
2016,04,15,00,15,9.20
2016,04,15,00,16,9.20
2016,04,15,00,17,9.20
2016,04,15,00,18,9.20
2016,04,15,00,19,9.20
2016,04,15,00,20,9.10
2016,04,15,00,21,9.10
2016,04,15,00,22,9.10
2016,04,15,00,23,9.10
2016,04,15,00,24,9.10
2016,04,15,00,25,9.10
2016,04,15,00,26,9.10
2016,04,15,00,27,9.10
2016,04,15,00,28,9.00
2016,04,15,00,29,9.00
2016,04,15,00,30,9.00
2016,04,15,00,31,8.90
2016,04,15,00,32,8.90
2016,04,15,00,33,8.90
2016,04,15,00,34,8.90
2016,04,15,00,35,8.90
2016,04,15,00,36,8.90
2016,04,15,00,37,8.90
2016,04,15,00,38,8.90
2016,04,15,00,39,8.80
2016,04,15,00,40,8.80
2016,04,15,00,41,8.80
2016,04,15,00,42,8.80
2016,04,15,00,43,8.80
2016,04,15,00,44,8.80
2016,04,15,00,45,8.80
2016,04,15,00,46,8.80
2016,04,15,00,47,8.80
2016,04,15,00,48,8.80
2016,04,15,00,49,8.80
2016,04,15,00,50,8.80
2016,04,15,00,51,8.80
2016,04,15,00,52,8.80
2016,04,15,00,53,8.80
2016,04,15,00,54,8.80
2016,04,15,00,55,8.70
2016,04,15,00,56,8.70
2016,04,15,00,57,8.70
2016,04,15,00,58,8.70
2016,04,15,00,59,8.70
2016,04,15,01,00,8.70
2016,04,15,01,01,8.70
2016,04,15,01,02,8.70
2016,04,15,01,03,8.70
2016,04,15,01,04,8.70
2016,04,15,01,05,8.60
2016,04,15,01,06,8.60
2016,04,15,01,07,8.60
2016,04,15,01,08,8.60
2016,04,15,01,09,8.60
2016,04,15,01,10,8.60
2016,04,15,01,11,8.60
2016,04,15,01,12,8.60
2016,04,15,01,13,8.60
2016,04,15,01,14,8.60
2016,04,15,01,15,8.60
2016,04,15,01,16,8.60
2016,04,15,01,17,8.60
2016,04,15,01,18,8.50
2016,04,15,01,19,8.50
2016,04,15,01,20,8.50
2016,04,15,01,21,8.40
2016,04,15,01,22,8.40
2016,04,15,01,23,8.40
2016,04,15,01,24,8.40
2016,04,15,01,25,8.30
2016,04,15,01,26,8.30
2016,04,15,01,27,8.20
2016,04,15,01,28,8.00
2016,04,15,01,29,7.90
2016,04,15,01,30,7.80
2016,04,15,01,31,7.70
2016,04,15,01,32,7.60
2016,04,15,01,33,7.40
2016,04,15,01,34,7.30
2016,04,15,01,35,7.20
2016,04,15,01,36,7.10
2016,04,15,01,37,6.90
2016,04,15,01,38,6.80
2016,04,15,01,39,6.70
2016,04,15,01,40,6.60
2016,04,15,01,41,6.50
2016,04,15,01,42,6.40
2016,04,15,01,43,6.40
2016,04,15,01,44,6.30
2016,04,15,01,45,6.30
2016,04,15,01,46,6.20
2016,04,15,01,47,6.20
2016,04,15,01,48,6.10
2016,04,15,01,49,6.10
2016,04,15,01,50,6.00
2016,04,15,01,51,6.00
2016,04,15,01,52,5.90
2016,04,15,01,53,5.90
2016,04,15,01,54,5.80
2016,04,15,01,55,5.80
2016,04,15,01,56,5.80
2016,04,15,01,57,5.80
2016,04,15,01,58,5.80
2016,04,15,01,59,5.80
2016,04,15,02,00,5.80
2016,04,15,02,01,5.80
2016,04,15,02,02,5.80
2016,04,15,02,03,5.80
2016,04,15,02,04,5.80
2016,04,15,02,05,5.80
2016,04,15,02,06,5.70
2016,04,15,02,07,5.70
2016,04,15,02,08,5.70
2016,04,15,02,09,5.60
2016,04,15,02,10,5.60
2016,04,15,02,11,5.60
2016,04,15,02,12,5.50
2016,04,15,02,13,5.50
2016,04,15,02,14,5.40
2016,04,15,02,15,5.40
2016,04,15,02,16,5.40
2016,04,15,02,17,5.30
2016,04,15,02,18,5.30
2016,04,15,02,19,5.30
2016,04,15,02,20,5.20
2016,04,15,02,21,5.20
2016,04,15,02,22,5.20
2016,04,15,02,23,5.10
2016,04,15,02,24,5.10
2016,04,15,02,25,5.10
2016,04,15,02,26,5.00
2016,04,15,02,27,5.00
2016,04,15,02,28,5.00
2016,04,15,02,29,4.90
2016,04,15,02,30,4.90
2016,04,15,02,31,4.90
2016,04,15,02,32,4.90
2016,04,15,02,33,4.90
2016,04,15,02,34,4.90
2016,04,15,02,35,4.90
2016,04,15,02,36,4.90
2016,04,15,02,37,5.00
2016,04,15,02,38,5.00
2016,04,15,02,39,5.00
2016,04,15,02,40,5.10
2016,04,15,02,41,5.10
2016,04,15,02,42,5.20
2016,04,15,02,43,5.20
2016,04,15,02,44,5.20
2016,04,15,02,45,5.20
2016,04,15,02,46,5.20
2016,04,15,02,47,5.30
2016,04,15,02,48,5.30
2016,04,15,02,49,5.30
2016,04,15,02,50,5.30
2016,04,15,02,51,5.30
2016,04,15,02,52,5.30
2016,04,15,02,53,5.40
2016,04,15,02,54,5.40
2016,04,15,02,55,5.40
2016,04,15,02,56,5.40
2016,04,15,02,57,5.40
2016,04,15,02,58,5.40
2016,04,15,02,59,5.40
2016,04,15,03,00,5.30
2016,04,15,03,01,5.30
2016,04,15,03,02,5.30
2016,04,15,03,03,5.30
2016,04,15,03,04,5.30
2016,04,15,03,05,5.30
2016,04,15,03,06,5.30
2016,04,15,03,07,5.30
2016,04,15,03,08,5.40
2016,04,15,03,09,5.30
2016,04,15,03,10,5.30
2016,04,15,03,11,5.30
2016,04,15,03,12,5.20
2016,04,15,03,13,5.20
2016,04,15,03,14,5.10
2016,04,15,03,15,5.00
2016,04,15,03,16,5.00
2016,04,15,03,17,4.90
2016,04,15,03,18,4.90
2016,04,15,03,19,4.90
2016,04,15,03,20,4.90
2016,04,15,03,21,4.80
2016,04,15,03,22,4.80
2016,04,15,03,23,4.80
2016,04,15,03,24,4.80
2016,04,15,03,25,4.70
2016,04,15,03,26,4.70
2016,04,15,03,27,4.70
2016,04,15,03,28,4.70
2016,04,15,03,29,4.60
2016,04,15,03,30,4.60
2016,04,15,03,31,4.60
2016,04,15,03,32,4.60
2016,04,15,03,33,4.60
2016,04,15,03,34,4.60
2016,04,15,03,35,4.60
2016,04,15,03,36,4.50
2016,04,15,03,37,4.50
2016,04,15,03,38,4.40
2016,04,15,03,39,4.40
2016,04,15,03,40,4.30
2016,04,15,03,41,4.30
2016,04,15,03,42,4.30
2016,04,15,03,43,4.20
2016,04,15,03,44,4.20
2016,04,15,03,45,4.20
2016,04,15,03,46,4.10
2016,04,15,03,47,4.10
2016,04,15,03,48,4.10
2016,04,15,03,49,4.10
2016,04,15,03,50,4.10
2016,04,15,03,51,4.10
2016,04,15,03,52,4.10
2016,04,15,03,53,4.10
2016,04,15,03,54,4.00
2016,04,15,03,55,4.00
2016,04,15,03,56,4.00
2016,04,15,03,57,4.00
2016,04,15,03,58,4.00
2016,04,15,03,59,3.90
2016,04,15,04,00,3.90
2016,04,15,04,01,3.90
2016,04,15,04,02,3.90
2016,04,15,04,03,3.90
2016,04,15,04,04,3.90
2016,04,15,04,05,3.90
2016,04,15,04,06,3.90
2016,04,15,04,07,3.90
2016,04,15,04,08,3.80
2016,04,15,04,09,3.80
2016,04,15,04,10,3.80
2016,04,15,04,11,3.80
2016,04,15,04,12,3.80
2016,04,15,04,13,3.80
2016,04,15,04,14,3.80
2016,04,15,04,15,3.80
2016,04,15,04,16,3.80
2016,04,15,04,17,3.80
2016,04,15,04,18,3.80
2016,04,15,04,19,3.80
2016,04,15,04,20,3.70
2016,04,15,04,21,3.70
2016,04,15,04,22,3.70
2016,04,15,04,23,3.70
2016,04,15,04,24,3.70
2016,04,15,04,25,3.80
2016,04,15,04,26,3.80
2016,04,15,04,27,3.80
2016,04,15,04,28,3.80
2016,04,15,04,29,3.80
2016,04,15,04,30,3.80
2016,04,15,04,31,3.80
2016,04,15,04,32,3.80
2016,04,15,04,33,3.90
2016,04,15,04,34,3.90
2016,04,15,04,35,3.90
2016,04,15,04,36,3.80
2016,04,15,04,37,3.80
2016,04,15,04,38,3.80
2016,04,15,04,39,3.80
2016,04,15,04,40,3.80
2016,04,15,04,41,3.80
2016,04,15,04,42,3.80
2016,04,15,04,43,3.70
2016,04,15,04,44,3.70
2016,04,15,04,45,3.70
2016,04,15,04,46,3.70
2016,04,15,04,47,3.70
2016,04,15,04,48,3.70
2016,04,15,04,49,3.70
2016,04,15,04,50,3.70
2016,04,15,04,51,3.60
2016,04,15,04,52,3.60
2016,04,15,04,53,3.60
2016,04,15,04,54,3.60
2016,04,15,04,55,3.60
2016,04,15,04,56,3.60
2016,04,15,04,57,3.60
2016,04,15,04,58,3.60
2016,04,15,04,59,3.60
2016,04,15,05,00,3.60
2016,04,15,05,01,3.70
2016,04,15,05,02,3.70
2016,04,15,05,03,3.70
2016,04,15,05,04,3.70
2016,04,15,05,05,3.70
2016,04,15,05,06,3.70
2016,04,15,05,07,3.60
2016,04,15,05,08,3.60
2016,04,15,05,09,3.60
2016,04,15,05,10,3.60
2016,04,15,05,11,3.50
2016,04,15,05,12,3.50
2016,04,15,05,13,3.50
2016,04,15,05,14,3.50
2016,04,15,05,15,3.50
2016,04,15,05,16,3.50
2016,04,15,05,17,3.50
2016,04,15,05,18,3.50
2016,04,15,05,19,3.50
2016,04,15,05,20,3.40
2016,04,15,05,21,3.40
2016,04,15,05,22,3.40
2016,04,15,05,23,3.40
2016,04,15,05,24,3.30
2016,04,15,05,25,3.30
2016,04,15,05,26,3.30
2016,04,15,05,27,3.30
2016,04,15,05,28,3.30
2016,04,15,05,29,3.30
2016,04,15,05,30,3.30
2016,04,15,05,31,3.30
2016,04,15,05,32,3.30
2016,04,15,05,33,3.30
2016,04,15,05,34,3.30
2016,04,15,05,35,3.30
2016,04,15,05,36,3.30
2016,04,15,05,37,3.30
2016,04,15,05,38,3.30
2016,04,15,05,39,3.20
2016,04,15,05,40,3.20
2016,04,15,05,41,3.20
2016,04,15,05,42,3.10
2016,04,15,05,43,3.10
2016,04,15,05,44,3.10
2016,04,15,05,45,3.10
2016,04,15,05,46,3.10
2016,04,15,05,47,3.10
2016,04,15,05,48,3.00
2016,04,15,05,49,3.00
2016,04,15,05,50,3.00
2016,04,15,05,51,3.00
2016,04,15,05,52,2.90
2016,04,15,05,53,2.90
2016,04,15,05,54,2.90
2016,04,15,05,55,2.90
2016,04,15,05,56,2.90
2016,04,15,05,57,2.90
2016,04,15,05,58,2.80
2016,04,15,05,59,2.80
2016,04,15,06,00,2.80
2016,04,15,06,01,2.80
2016,04,15,06,02,2.80
2016,04,15,06,03,2.80
2016,04,15,06,04,2.80
2016,04,15,06,05,2.80
2016,04,15,06,06,2.80
2016,04,15,06,07,2.80
2016,04,15,06,08,2.80
2016,04,15,06,09,2.80
2016,04,15,06,10,2.80
2016,04,15,06,11,2.90
2016,04,15,06,12,2.90
2016,04,15,06,13,2.90
2016,04,15,06,14,2.90
2016,04,15,06,15,2.90
2016,04,15,06,16,2.90
2016,04,15,06,17,2.90
2016,04,15,06,18,2.90
2016,04,15,06,19,2.90
2016,04,15,06,20,2.90
2016,04,15,06,21,2.90
2016,04,15,06,22,2.80
2016,04,15,06,23,2.80
2016,04,15,06,24,2.80
2016,04,15,06,25,2.80
2016,04,15,06,26,2.80
2016,04,15,06,27,2.80
2016,04,15,06,28,2.80
2016,04,15,06,29,2.80
2016,04,15,06,30,2.80
2016,04,15,06,31,2.80
2016,04,15,06,32,2.80
2016,04,15,06,33,2.80
2016,04,15,06,34,2.80
2016,04,15,06,35,2.80
2016,04,15,06,36,2.80
2016,04,15,06,37,2.80
2016,04,15,06,38,2.80
2016,04,15,06,39,2.80
2016,04,15,06,40,2.80
2016,04,15,06,41,2.80
2016,04,15,06,42,2.80
2016,04,15,06,43,2.80
2016,04,15,06,44,2.70
2016,04,15,06,45,2.80
2016,04,15,06,46,2.80
2016,04,15,06,47,2.80
2016,04,15,06,48,2.80
2016,04,15,06,49,2.80
2016,04,15,06,50,2.80
2016,04,15,06,51,2.80
2016,04,15,06,52,2.90
2016,04,15,06,53,2.90
2016,04,15,06,54,2.90
2016,04,15,06,55,2.90
2016,04,15,06,56,3.00
2016,04,15,06,57,3.00
2016,04,15,06,58,3.00
2016,04,15,06,59,3.00
2016,04,15,07,00,3.10
2016,04,15,07,01,3.10
2016,04,15,07,02,3.10
2016,04,15,07,03,3.10
2016,04,15,07,04,3.10
2016,04,15,07,05,3.10
2016,04,15,07,06,3.10
2016,04,15,07,07,3.20
2016,04,15,07,08,3.20
2016,04,15,07,09,3.20
2016,04,15,07,10,3.20
2016,04,15,07,11,3.20
2016,04,15,07,12,3.30
2016,04,15,07,13,3.40
2016,04,15,07,14,3.50
2016,04,15,07,15,3.50
2016,04,15,07,16,3.50
2016,04,15,07,17,3.50
2016,04,15,07,18,3.40
2016,04,15,07,19,3.50
2016,04,15,07,20,3.50
2016,04,15,07,21,3.50
2016,04,15,07,22,3.50
2016,04,15,07,23,3.60
2016,04,15,07,24,3.70
2016,04,15,07,25,3.70
2016,04,15,07,26,3.80
2016,04,15,07,27,3.80
2016,04,15,07,28,3.90
2016,04,15,07,29,4.00
2016,04,15,07,30,4.10
2016,04,15,07,31,4.10
2016,04,15,07,32,4.20
2016,04,15,07,33,4.30
2016,04,15,07,34,4.50
2016,04,15,07,35,4.70
2016,04,15,07,36,4.90
2016,04,15,07,37,5.20
2016,04,15,07,38,5.40
2016,04,15,07,39,5.50
2016,04,15,07,40,5.80
2016,04,15,07,41,6.00
2016,04,15,07,42,6.40
2016,04,15,07,43,6.70
2016,04,15,07,44,7.00
2016,04,15,07,45,7.30
2016,04,15,07,46,7.60
2016,04,15,07,47,7.80
2016,04,15,07,48,7.90
2016,04,15,07,49,8.10
2016,04,15,07,50,8.30
2016,04,15,07,51,8.40
2016,04,15,07,52,8.60
2016,04,15,07,53,8.70
2016,04,15,07,54,8.80
2016,04,15,07,55,8.90
2016,04,15,07,56,8.90
2016,04,15,07,57,9.00
2016,04,15,07,58,9.10
2016,04,15,07,59,9.10
2016,04,15,08,00,9.20
2016,04,15,08,01,9.20
2016,04,15,08,02,9.30
2016,04,15,08,03,9.30
2016,04,15,08,04,9.40
2016,04,15,08,05,9.40
2016,04,15,08,06,9.40
2016,04,15,08,07,9.50
2016,04,15,08,08,9.50
2016,04,15,08,09,9.60
2016,04,15,08,10,9.60
2016,04,15,08,11,9.60
2016,04,15,08,12,9.70
2016,04,15,08,13,9.70
2016,04,15,08,14,9.70
2016,04,15,08,15,9.70
2016,04,15,08,16,9.80
2016,04,15,08,17,9.80
2016,04,15,08,18,9.80
2016,04,15,08,19,9.90
2016,04,15,08,20,9.90
2016,04,15,08,21,9.90
2016,04,15,08,22,10.00
2016,04,15,08,23,10.10
2016,04,15,08,24,10.10
2016,04,15,08,25,10.10
2016,04,15,08,26,10.20
2016,04,15,08,27,10.20
2016,04,15,08,28,10.20
2016,04,15,08,29,10.30
2016,04,15,08,30,10.30
2016,04,15,08,31,10.30
2016,04,15,08,32,10.30
2016,04,15,08,33,10.30
2016,04,15,08,34,10.40
2016,04,15,08,35,10.40
2016,04,15,08,36,10.40
2016,04,15,08,37,10.50
2016,04,15,08,38,10.50
2016,04,15,08,39,10.50
2016,04,15,08,40,10.60
2016,04,15,08,41,10.60
2016,04,15,08,42,10.60
2016,04,15,08,43,10.60
2016,04,15,08,44,10.60
2016,04,15,08,45,10.70
2016,04,15,08,46,10.70
2016,04,15,08,47,10.70
2016,04,15,08,48,10.70
2016,04,15,08,49,10.70
2016,04,15,08,50,10.80
2016,04,15,08,51,10.80
2016,04,15,08,52,10.80
2016,04,15,08,53,10.80
2016,04,15,08,54,10.80
2016,04,15,08,55,10.80
2016,04,15,08,56,10.80
2016,04,15,08,57,10.90
2016,04,15,08,58,10.90
2016,04,15,08,59,10.90
2016,04,15,09,00,10.90
2016,04,15,09,01,10.90
2016,04,15,09,02,10.90
2016,04,15,09,03,10.90
2016,04,15,09,04,10.90
2016,04,15,09,05,10.90
2016,04,15,09,06,10.90
2016,04,15,09,07,10.90
2016,04,15,09,08,10.90
2016,04,15,09,09,11.00
2016,04,15,09,10,11.00
2016,04,15,09,11,11.00
2016,04,15,09,12,11.00
2016,04,15,09,13,11.00
2016,04,15,09,14,11.00
2016,04,15,09,15,11.10
2016,04,15,09,16,11.10
2016,04,15,09,17,11.10
2016,04,15,09,18,11.10
2016,04,15,09,19,11.20
2016,04,15,09,20,11.20
2016,04,15,09,21,11.20
2016,04,15,09,22,11.20
2016,04,15,09,23,11.20
2016,04,15,09,24,11.30
2016,04,15,09,25,11.30
2016,04,15,09,26,11.30
2016,04,15,09,27,11.30
2016,04,15,09,28,11.30
2016,04,15,09,29,11.40
2016,04,15,09,30,11.40
2016,04,15,09,31,11.50
2016,04,15,09,32,11.50
2016,04,15,09,33,11.50
2016,04,15,09,34,11.60
2016,04,15,09,35,11.60
2016,04,15,09,36,11.50
2016,04,15,09,37,11.40
2016,04,15,09,38,11.40
2016,04,15,09,39,11.30
2016,04,15,09,40,11.20
2016,04,15,09,41,11.20
2016,04,15,09,42,11.20
2016,04,15,09,43,11.20
2016,04,15,09,44,11.20
2016,04,15,09,45,11.20
2016,04,15,09,46,11.20
2016,04,15,09,47,11.20
2016,04,15,09,48,11.30
2016,04,15,09,49,11.30
2016,04,15,09,50,11.30
2016,04,15,09,51,11.30
2016,04,15,09,52,11.30
2016,04,15,09,53,11.30
2016,04,15,09,54,11.30
2016,04,15,09,55,11.30
2016,04,15,09,56,11.30
2016,04,15,09,57,11.30
2016,04,15,09,58,11.30
2016,04,15,09,59,11.30
2016,04,15,10,00,11.30
2016,04,15,10,01,11.30
2016,04,15,10,02,11.30
2016,04,15,10,03,11.30
2016,04,15,10,04,11.30
2016,04,15,10,05,11.30
2016,04,15,10,06,11.20
2016,04,15,10,07,11.20
2016,04,15,10,08,11.20
2016,04,15,10,09,11.20
2016,04,15,10,10,11.10
2016,04,15,10,11,11.10
2016,04,15,10,12,11.00
2016,04,15,10,13,11.00
2016,04,15,10,14,10.90
2016,04,15,10,15,10.80
2016,04,15,10,16,10.80
2016,04,15,10,17,10.80
2016,04,15,10,18,10.70
2016,04,15,10,19,10.70
2016,04,15,10,20,10.70
2016,04,15,10,21,10.60
2016,04,15,10,22,10.60
2016,04,15,10,23,10.50
2016,04,15,10,24,10.50
2016,04,15,10,25,10.50
2016,04,15,10,26,10.40
2016,04,15,10,27,10.40
2016,04,15,10,28,10.40
2016,04,15,10,29,10.40
2016,04,15,10,30,10.40
2016,04,15,10,31,10.40
2016,04,15,10,32,10.40
2016,04,15,10,33,10.40
2016,04,15,10,34,10.40
2016,04,15,10,35,10.50
2016,04,15,10,36,10.50
2016,04,15,10,37,10.50
2016,04,15,10,38,10.60
2016,04,15,10,39,10.60
2016,04,15,10,40,10.60
2016,04,15,10,41,10.60
2016,04,15,10,42,10.60
2016,04,15,10,43,10.60
2016,04,15,10,44,10.60
2016,04,15,10,45,10.60
2016,04,15,10,46,10.60
2016,04,15,10,47,10.60
2016,04,15,10,48,10.60
2016,04,15,10,49,10.60
2016,04,15,10,50,10.60
2016,04,15,10,51,10.60
2016,04,15,10,52,10.60
2016,04,15,10,53,10.60
2016,04,15,10,54,10.70
2016,04,15,10,55,10.70
2016,04,15,10,56,10.70
2016,04,15,10,57,10.70
2016,04,15,10,58,10.80
2016,04,15,10,59,10.80
2016,04,15,11,00,10.80
2016,04,15,11,01,10.80
2016,04,15,11,02,10.80
2016,04,15,11,03,10.80
2016,04,15,11,04,10.80
2016,04,15,11,05,10.90
2016,04,15,11,06,10.90
2016,04,15,11,07,10.90
2016,04,15,11,08,10.90
2016,04,15,11,09,11.00
2016,04,15,11,10,11.00
2016,04,15,11,11,11.00
2016,04,15,11,12,11.00
2016,04,15,11,13,11.00
2016,04,15,11,14,10.90
2016,04,15,11,15,10.90
2016,04,15,11,16,10.90
2016,04,15,11,17,11.00
2016,04,15,11,18,11.00
2016,04,15,11,19,10.90
2016,04,15,11,20,10.90
2016,04,15,11,21,11.00
2016,04,15,11,22,11.00
2016,04,15,11,23,11.00
2016,04,15,11,24,11.00
2016,04,15,11,25,10.90
2016,04,15,11,26,10.90
2016,04,15,11,27,10.90
2016,04,15,11,28,10.90
2016,04,15,11,29,10.90
2016,04,15,11,30,10.90
2016,04,15,11,31,10.90
2016,04,15,11,32,10.90
2016,04,15,11,33,10.90
2016,04,15,11,34,10.90
2016,04,15,11,35,11.00
2016,04,15,11,36,11.00
2016,04,15,11,37,10.90
2016,04,15,11,38,10.90
2016,04,15,11,39,11.00
2016,04,15,11,40,11.00
2016,04,15,11,41,11.00
2016,04,15,11,42,11.00
2016,04,15,11,43,11.00
2016,04,15,11,44,11.00
2016,04,15,11,45,11.00
2016,04,15,11,46,11.10
2016,04,15,11,47,11.10
2016,04,15,11,48,11.10
2016,04,15,11,49,11.10
2016,04,15,11,50,11.10
2016,04,15,11,51,11.10
2016,04,15,11,52,11.10
2016,04,15,11,53,11.10
2016,04,15,11,54,11.20
2016,04,15,11,55,11.10
2016,04,15,11,56,11.20
2016,04,15,11,57,11.20
2016,04,15,11,58,11.20
2016,04,15,11,59,11.20
2016,04,15,12,00,11.20
2016,04,15,12,01,11.20
2016,04,15,12,02,11.20
2016,04,15,12,03,11.20
2016,04,15,12,04,11.20
2016,04,15,12,05,11.30
2016,04,15,12,06,11.30
2016,04,15,12,07,11.30
2016,04,15,12,08,11.30
2016,04,15,12,09,11.30
2016,04,15,12,10,11.30
2016,04,15,12,11,11.30
2016,04,15,12,12,11.30
2016,04,15,12,13,11.40
2016,04,15,12,14,11.40
2016,04,15,12,15,11.40
2016,04,15,12,16,11.40
2016,04,15,12,17,11.40
2016,04,15,12,18,11.40
2016,04,15,12,19,11.50
2016,04,15,12,20,11.50
2016,04,15,12,21,11.50
2016,04,15,12,22,11.60
2016,04,15,12,23,11.60
2016,04,15,12,24,11.70
2016,04,15,12,25,11.70
2016,04,15,12,26,11.70
2016,04,15,12,27,11.70
2016,04,15,12,28,11.70
2016,04,15,12,29,11.70
2016,04,15,12,30,11.70
2016,04,15,12,31,11.70
2016,04,15,12,32,11.70
2016,04,15,12,33,11.80
2016,04,15,12,34,11.80
2016,04,15,12,35,11.90
2016,04,15,12,36,11.90
2016,04,15,12,37,11.90
2016,04,15,12,38,11.90
2016,04,15,12,39,11.80
2016,04,15,12,40,11.90
2016,04,15,12,41,11.90
2016,04,15,12,42,12.00
2016,04,15,12,43,12.00
2016,04,15,12,44,12.10
2016,04,15,12,45,12.10
2016,04,15,12,46,12.10
2016,04,15,12,47,12.20
2016,04,15,12,48,12.20
2016,04,15,12,49,12.20
2016,04,15,12,50,12.20
2016,04,15,12,51,12.20
2016,04,15,12,52,12.20
2016,04,15,12,53,12.20
2016,04,15,12,54,12.30
2016,04,15,12,55,12.30
2016,04,15,12,56,12.30
2016,04,15,12,57,12.30
2016,04,15,12,58,12.40
2016,04,15,12,59,12.50
2016,04,15,13,00,12.50
2016,04,15,13,01,12.60
2016,04,15,13,02,12.80
2016,04,15,13,03,12.90
2016,04,15,13,04,13.00
2016,04,15,13,05,13.00
2016,04,15,13,06,13.10
2016,04,15,13,07,13.20
2016,04,15,13,08,13.20
2016,04,15,13,09,13.30
2016,04,15,13,10,13.30
2016,04,15,13,11,13.30
2016,04,15,13,12,13.30
2016,04,15,13,13,13.40
2016,04,15,13,14,13.40
2016,04,15,13,15,13.40
2016,04,15,13,16,13.50
2016,04,15,13,17,13.50
2016,04,15,13,18,13.60
2016,04,15,13,19,13.60
2016,04,15,13,20,13.60
2016,04,15,13,21,13.60
2016,04,15,13,22,13.60
2016,04,15,13,23,13.50
2016,04,15,13,24,13.40
2016,04,15,13,25,13.50
2016,04,15,13,26,13.60
2016,04,15,13,27,13.60
2016,04,15,13,28,13.70
2016,04,15,13,29,13.70
2016,04,15,13,30,13.80
2016,04,15,13,31,13.90
2016,04,15,13,32,13.90
2016,04,15,13,33,14.00
2016,04,15,13,34,13.90
2016,04,15,13,35,13.90
2016,04,15,13,36,13.90
2016,04,15,13,37,13.90
2016,04,15,13,38,13.80
2016,04,15,13,39,13.80
2016,04,15,13,40,13.80
2016,04,15,13,41,13.80
2016,04,15,13,42,13.80
2016,04,15,13,43,13.70
2016,04,15,13,44,13.70
2016,04,15,13,45,13.80
2016,04,15,13,46,13.90
2016,04,15,13,47,14.00
2016,04,15,13,48,14.00
2016,04,15,13,49,14.10
2016,04,15,13,50,14.10
2016,04,15,13,51,14.20
2016,04,15,13,52,14.20
2016,04,15,13,53,14.20
2016,04,15,13,54,14.20
2016,04,15,13,55,14.20
2016,04,15,13,56,14.30
2016,04,15,13,57,14.30
2016,04,15,13,58,14.40
2016,04,15,13,59,14.50
2016,04,15,14,00,14.40
2016,04,15,14,01,14.30
2016,04,15,14,02,14.20
2016,04,15,14,03,14.20
2016,04,15,14,04,14.20
2016,04,15,14,05,14.20
2016,04,15,14,06,14.20
2016,04,15,14,07,14.20
2016,04,15,14,08,14.30
2016,04,15,14,09,14.30
2016,04,15,14,10,14.40
2016,04,15,14,11,14.40
2016,04,15,14,12,14.50
2016,04,15,14,13,14.50
2016,04,15,14,14,14.50
2016,04,15,14,15,14.40
2016,04,15,14,16,14.40
2016,04,15,14,17,14.30
2016,04,15,14,18,14.30
2016,04,15,14,19,14.30
2016,04,15,14,20,14.20
2016,04,15,14,21,14.20
2016,04,15,14,22,14.20
2016,04,15,14,23,14.20
2016,04,15,14,24,14.20
2016,04,15,14,25,14.10
2016,04,15,14,26,14.10
2016,04,15,14,27,14.20
2016,04,15,14,28,14.20
2016,04,15,14,29,14.30
2016,04,15,14,30,14.30
2016,04,15,14,31,14.30
2016,04,15,14,32,14.30
2016,04,15,14,33,14.30
2016,04,15,14,34,14.30
2016,04,15,14,35,14.30
2016,04,15,14,36,14.30
2016,04,15,14,37,14.30
2016,04,15,14,38,14.40
2016,04,15,14,39,14.40
2016,04,15,14,40,14.40
2016,04,15,14,41,14.40
2016,04,15,14,42,14.30
2016,04,15,14,43,14.30
2016,04,15,14,44,14.40
2016,04,15,14,45,14.50
2016,04,15,14,46,14.50
2016,04,15,14,47,14.50
2016,04,15,14,48,14.40
2016,04,15,14,49,14.40
2016,04,15,14,50,14.40
2016,04,15,14,51,14.30
2016,04,15,14,52,14.20
2016,04,15,14,53,14.20
2016,04,15,14,54,14.20
2016,04,15,14,55,14.10
2016,04,15,14,56,14.00
2016,04,15,14,57,13.90
2016,04,15,14,58,13.80
2016,04,15,14,59,13.70
2016,04,15,15,00,13.60
2016,04,15,15,01,13.60
2016,04,15,15,02,13.60
2016,04,15,15,03,13.60
2016,04,15,15,04,13.70
2016,04,15,15,05,13.70
2016,04,15,15,06,13.70
2016,04,15,15,07,13.60
2016,04,15,15,08,13.50
2016,04,15,15,09,13.50
2016,04,15,15,10,13.40
2016,04,15,15,11,13.30
2016,04,15,15,12,13.30
2016,04,15,15,13,13.30
2016,04,15,15,14,13.30
2016,04,15,15,15,13.30
2016,04,15,15,16,13.30
2016,04,15,15,17,13.30
2016,04,15,15,18,13.30
2016,04,15,15,19,13.30
2016,04,15,15,20,13.30
2016,04,15,15,21,13.30
2016,04,15,15,22,13.30
2016,04,15,15,23,13.30
2016,04,15,15,24,13.30
2016,04,15,15,25,13.30
2016,04,15,15,26,13.20
2016,04,15,15,27,13.20
2016,04,15,15,28,13.20
2016,04,15,15,29,13.10
2016,04,15,15,30,13.10
2016,04,15,15,31,13.00
2016,04,15,15,32,13.00
2016,04,15,15,33,12.90
2016,04,15,15,34,12.90
2016,04,15,15,35,12.90
2016,04,15,15,36,13.00
2016,04,15,15,37,13.00
2016,04,15,15,38,13.00
2016,04,15,15,39,13.00
2016,04,15,15,40,13.10
2016,04,15,15,41,13.10
2016,04,15,15,42,13.10
2016,04,15,15,43,13.10
2016,04,15,15,44,13.00
2016,04,15,15,45,12.90
2016,04,15,15,46,12.90
2016,04,15,15,47,13.00
2016,04,15,15,48,13.00
2016,04,15,15,49,13.00
2016,04,15,15,50,13.00
2016,04,15,15,51,13.10
2016,04,15,15,52,13.20
2016,04,15,15,53,13.20
2016,04,15,15,54,13.20
2016,04,15,15,55,13.20
2016,04,15,15,56,13.10
2016,04,15,15,57,13.10
2016,04,15,15,58,13.00
2016,04,15,15,59,13.00
2016,04,15,16,00,12.90
2016,04,15,16,01,12.90
2016,04,15,16,02,12.90
2016,04,15,16,03,12.90
2016,04,15,16,04,13.00
2016,04,15,16,05,13.00
2016,04,15,16,06,13.00
2016,04,15,16,07,13.00
2016,04,15,16,08,12.90
2016,04,15,16,09,12.90
2016,04,15,16,10,12.80
2016,04,15,16,11,12.70
2016,04,15,16,12,12.60
2016,04,15,16,13,12.60
2016,04,15,16,14,12.60
2016,04,15,16,15,12.60
2016,04,15,16,16,12.70
2016,04,15,16,17,12.70
2016,04,15,16,18,12.70
2016,04,15,16,19,12.70
2016,04,15,16,20,12.60
2016,04,15,16,21,12.60
2016,04,15,16,22,12.70
2016,04,15,16,23,12.70
2016,04,15,16,24,12.70
2016,04,15,16,25,12.60
2016,04,15,16,26,12.60
2016,04,15,16,27,12.60
2016,04,15,16,28,12.70
2016,04,15,16,29,12.70
2016,04,15,16,30,12.70
2016,04,15,16,31,12.80
2016,04,15,16,32,12.70
2016,04,15,16,33,12.70
2016,04,15,16,34,12.70
2016,04,15,16,35,12.70
2016,04,15,16,36,12.70
2016,04,15,16,37,12.70
2016,04,15,16,38,12.80
2016,04,15,16,39,12.80
2016,04,15,16,40,12.80
2016,04,15,16,41,12.70
2016,04,15,16,42,12.70
2016,04,15,16,43,12.60
2016,04,15,16,44,12.60
2016,04,15,16,45,12.60
2016,04,15,16,46,12.50
2016,04,15,16,47,12.50
2016,04,15,16,48,12.50
2016,04,15,16,49,12.50
2016,04,15,16,50,12.40
2016,04,15,16,51,12.40
2016,04,15,16,52,12.40
2016,04,15,16,53,12.40
2016,04,15,16,54,12.40
2016,04,15,16,55,12.40
2016,04,15,16,56,12.40
2016,04,15,16,57,12.40
2016,04,15,16,58,12.40
2016,04,15,16,59,12.40
2016,04,15,17,00,12.40
2016,04,15,17,01,12.30
2016,04,15,17,02,12.30
2016,04,15,17,03,12.30
2016,04,15,17,04,12.30
2016,04,15,17,05,12.30
2016,04,15,17,06,12.40
2016,04,15,17,07,12.40
2016,04,15,17,08,12.40
2016,04,15,17,09,12.40
2016,04,15,17,10,12.40
2016,04,15,17,11,12.30
2016,04,15,17,12,12.30
2016,04,15,17,13,12.30
2016,04,15,17,14,12.40
2016,04,15,17,15,12.40
2016,04,15,17,16,12.40
2016,04,15,17,17,12.40
2016,04,15,17,18,12.40
2016,04,15,17,19,12.30
2016,04,15,17,20,12.30
2016,04,15,17,21,12.30
2016,04,15,17,22,12.30
2016,04,15,17,23,12.30
2016,04,15,17,24,12.20
2016,04,15,17,25,12.20
2016,04,15,17,26,12.20
2016,04,15,17,27,12.20
2016,04,15,17,28,12.20
2016,04,15,17,29,12.20
2016,04,15,17,30,12.30
2016,04,15,17,31,12.30
2016,04,15,17,32,12.30
2016,04,15,17,33,12.30
2016,04,15,17,34,12.30
2016,04,15,17,35,12.30
2016,04,15,17,36,12.30
2016,04,15,17,37,12.30
2016,04,15,17,38,12.30
2016,04,15,17,39,12.30
2016,04,15,17,40,12.30
2016,04,15,17,41,12.30